Volver al catálogo

UHETSAT

ActivoCienciaSSO
NORAD 58466·PAYLOAD·🇮🇹 Italy

Lanzado Dec 1, 2023 desde Vandenberg Space Force Base

Loading…

Próximos Pases (próximas 24 horas)

TLE

ActualizadoSource: Space-Track

Época: Sep 14, 2026, 14:58 UTC

1 58466U 23185E   26257.62362856  .00005507  00000-0  17916-3 0  9992
2 58466  97.3388 324.3035 0012313   0.4071 359.7179 15.32216772154985

Sigue UHETSAT en tiempo real con AllMySat

Download on the App Store